Location: San Antonio
(29.4240°N, 98.4930°W)
Time: 10:29:01
(UTC-06:00)

Transit 4A - Pass Details

Date: 14 December 2025
Orbit: 867 x 974 km, 66.8° (Epoch: 17 January)

Event Time Altitude Azimuth Distance (km) Brightness Sun altitude
Rises 18:07:42 0° 191° (S) 3,453 11.4 -6.9°
Reaches altitude 10° 18:10:14 10° 187° (S) 2,509 10.6 -7.4°
Maximum altitude 18:15:51 55° 111° (ESE) 1,034 7.9 -8.5°
Drops below altitude 10° 18:21:28 10° 35° (NE) 2,512 9.7 -9.7°
Enters shadow 18:22:31 - 33° (NNE) 2,901 10.0 -9.9°
